When you browse on this site, cookies collect data to enhance your experience and personalize the content and advertising you see.
Visit our Privacy Policy to learn more. By continuing to use the site, you agree to this use of cookies and data.
  • In Schweiz
  • Länderverzeichnis
  • Für 7 Tage
  • Wassertemperatur
  • Wetterkarte
  • Widgets
  • user-avatar
    Anmelden

    Stündliche Wetter Boa Vista

    Heute, 5 Juni, Freitag

    Zeit Temperatur Niederschläge Wind Luftdruck Luftfeuchtigkeit
    00:00 +26°C° 0.1 mm 1 m/S 754 mmHg 90%
    01:00 +26°C° 0.1 mm 1 m/S 754 mmHg 90%
    02:00 +26°C° 0.1 mm 1 m/S 754 mmHg 91%
    03:00 +26°C° 0 mm 1 m/S 753 mmHg 91%
    04:00 +26°C° 0 mm 1 m/S 753 mmHg 91%
    05:00 +25°C° 0 mm 1 m/S 753 mmHg 91%
    06:00 +27°C° 0 mm 1 m/S 754 mmHg 87%
    07:00 +28°C° 0 mm 1 m/S 754 mmHg 83%
    08:00 +29°C° 0 mm 2 m/S 755 mmHg 79%
    09:00 +30°C° 0 mm 2 m/S 755 mmHg 72%
    10:00 +32°C° 0 mm 2 m/S 755 mmHg 66%
    11:00 +34°C° 0 mm 2 m/S 755 mmHg 59%
    12:00 +35°C° 0 mm 2 m/S 754 mmHg 57%
    13:00 +35°C° 0 mm 2 m/S 753 mmHg 55%
    14:00 +35°C° 0 mm 2 m/S 753 mmHg 53%
    15:00 +35°C° 0 mm 2 m/S 752 mmHg 56%
    16:00 +35°C° 0 mm 2 m/S 752 mmHg 60%
    17:00 +33°C° 0 mm 1 m/S 752 mmHg 63%
    18:00 +32°C° 0 mm 1 m/S 752 mmHg 67%
    19:00 +30°C° 0 mm 1 m/S 753 mmHg 71%
    20:00 +29°C° 0 mm 1 m/S 753 mmHg 75%
    21:00 +28°C° 0.1 mm 1 m/S 754 mmHg 77%
    22:00 +28°C° 0.1 mm 1 m/S 754 mmHg 80%
    23:00 +27°C° 0.1 mm 1 m/S 755 mmHg 82%

    Morgen, 6 Juni, Samstag

    Zeit Temperatur Niederschläge Wind Luftdruck Luftfeuchtigkeit
    00:00 +27°C° 0.2 mm 1 m/S 754 mmHg 83%
    01:00 +27°C° 0.2 mm 1 m/S 754 mmHg 85%
    02:00 +27°C° 0.2 mm 1 m/S 753 mmHg 86%
    03:00 +26°C° 0.1 mm 1 m/S 754 mmHg 87%
    04:00 +26°C° 0.1 mm 1 m/S 754 mmHg 88%
    05:00 +26°C° 0.1 mm 1 m/S 754 mmHg 90%
    06:00 +27°C° 0 mm 2 m/S 754 mmHg 87%
    07:00 +28°C° 0 mm 2 m/S 755 mmHg 83%
    08:00 +29°C° 0 mm 3 m/S 755 mmHg 80%
    09:00 +30°C° 0.2 mm 3 m/S 755 mmHg 76%
    10:00 +31°C° 0.2 mm 3 m/S 755 mmHg 71%
    11:00 +33°C° 0.2 mm 3 m/S 755 mmHg 66%
    12:00 +33°C° 0.5 mm 3 m/S 754 mmHg 65%
    13:00 +34°C° 0.5 mm 3 m/S 753 mmHg 65%
    14:00 +34°C° 0.5 mm 3 m/S 752 mmHg 64%
    15:00 +34°C° 0 mm 2 m/S 752 mmHg 64%
    16:00 +34°C° 0 mm 2 m/S 752 mmHg 64%
    17:00 +33°C° 0 mm 1 m/S 752 mmHg 64%
    18:00 +32°C° 0 mm 1 m/S 752 mmHg 67%
    19:00 +31°C° 0 mm 1 m/S 753 mmHg 70%
    20:00 +27°C° 0 mm 0 m/S 754 mmHg 74%
    21:00 +29°C° 0.2 mm 1 m/S 754 mmHg 77%
    22:00 +28°C° 0.2 mm 1 m/S 754 mmHg 80%
    23:00 +27°C° 0.2 mm 2 m/S 755 mmHg 84%

    übermorgen, 7 Juni, Sonntag

    Zeit Temperatur Niederschläge Wind Luftdruck Luftfeuchtigkeit
    00:00 +27°C° 0.4 mm 1 m/S 754 mmHg 86%
    01:00 +26°C° 0.4 mm 1 m/S 754 mmHg 88%
    02:00 +26°C° 0.4 mm 1 m/S 753 mmHg 90%
    03:00 +26°C° 0.5 mm 1 m/S 754 mmHg 90%
    04:00 +26°C° 0.5 mm 2 m/S 754 mmHg 91%
    05:00 +25°C° 0.5 mm 2 m/S 754 mmHg 92%
    06:00 +26°C° 0.3 mm 2 m/S 754 mmHg 88%
    07:00 +27°C° 0.3 mm 2 m/S 755 mmHg 85%
    08:00 +28°C° 0.3 mm 3 m/S 755 mmHg 82%
    09:00 +29°C° 0.6 mm 3 m/S 755 mmHg 78%
    10:00 +30°C° 0.6 mm 3 m/S 755 mmHg 74%
    11:00 +32°C° 0.6 mm 4 m/S 755 mmHg 70%
    12:00 +32°C° 0.1 mm 4 m/S 754 mmHg 69%
    13:00 +32°C° 0.1 mm 4 m/S 753 mmHg 68%
    14:00 +31°C° 0.1 mm 3 m/S 753 mmHg 67%
    15:00 +30°C° 0 mm 3 m/S 752 mmHg 71%
    16:00 +29°C° 0 mm 2 m/S 752 mmHg 76%
    17:00 +28°C° 0 mm 2 m/S 752 mmHg 80%
    18:00 +28°C° 0.2 mm 1 m/S 752 mmHg 82%
    19:00 +27°C° 0.2 mm 1 m/S 753 mmHg 83%
    20:00 +27°C° 0.2 mm 1 m/S 753 mmHg 85%
    21:00 +27°C° 1.4 mm 1 m/S 754 mmHg 87%
    22:00 +26°C° 1.4 mm 2 m/S 754 mmHg 89%
    23:00 +26°C° 1.4 mm 2 m/S 754 mmHg 91%

    8 Juni, Montag

    Zeit Temperatur Niederschläge Wind Luftdruck Luftfeuchtigkeit
    00:00 +26°C° 1 mm 2 m/S 754 mmHg 91%
    01:00 +26°C° 1 mm 2 m/S 754 mmHg 92%
    02:00 +26°C° 1 mm 2 m/S 753 mmHg 92%
    03:00 +26°C° 0.9 mm 2 m/S 754 mmHg 93%
    04:00 +26°C° 0.9 mm 2 m/S 754 mmHg 93%
    05:00 +25°C° 0.9 mm 3 m/S 754 mmHg 94%
    06:00 +26°C° 0.2 mm 2 m/S 754 mmHg 94%
    07:00 +26°C° 0.2 mm 2 m/S 755 mmHg 93%
    08:00 +26°C° 0.2 mm 2 m/S 755 mmHg 93%
    09:00 +27°C° 0 mm 2 m/S 755 mmHg 90%
    10:00 +27°C° 0 mm 1 m/S 755 mmHg 86%
    11:00 +28°C° 0 mm 1 m/S 755 mmHg 83%
    12:00 +29°C° 0.3 mm 1 m/S 754 mmHg 79%
    13:00 +30°C° 0.3 mm 1 m/S 754 mmHg 75%
    14:00 +31°C° 0.3 mm 1 m/S 753 mmHg 71%
    15:00 +31°C° 1.1 mm 1 m/S 752 mmHg 73%
    16:00 +30°C° 1.1 mm 1 m/S 752 mmHg 76%
    17:00 +30°C° 1.1 mm 1 m/S 752 mmHg 79%
    18:00 +29°C° 0.6 mm 1 m/S 753 mmHg 82%
    19:00 +28°C° 0.6 mm 1 m/S 753 mmHg 86%
    20:00 +27°C° 0.6 mm 1 m/S 754 mmHg 89%
    21:00 +26°C° 0.3 mm 1 m/S 754 mmHg 90%
    22:00 +26°C° 0.3 mm 1 m/S 754 mmHg 91%
    23:00 +26°C° 0.3 mm 2 m/S 754 mmHg 91%

    9 Juni, Dienstag

    Zeit Temperatur Niederschläge Wind Luftdruck Luftfeuchtigkeit
    00:00 +26°C° 0 mm 1 m/S 754 mmHg 92%
    01:00 +25°C° 0 mm 1 m/S 753 mmHg 93%
    02:00 +25°C° 0 mm 1 m/S 752 mmHg 94%
    03:00 +25°C° 0.1 mm 1 m/S 753 mmHg 95%
    04:00 +25°C° 0.1 mm 1 m/S 753 mmHg 95%
    05:00 +25°C° 0.1 mm 1 m/S 753 mmHg 96%
    06:00 +26°C° 0 mm 1 m/S 753 mmHg 93%
    07:00 +26°C° 0 mm 1 m/S 754 mmHg 90%
    08:00 +27°C° 0 mm 1 m/S 754 mmHg 87%
    09:00 +28°C° 2.2 mm 1 m/S 754 mmHg 84%
    10:00 +29°C° 2.2 mm 1 m/S 754 mmHg 80%
    11:00 +28°C° 2.2 mm 0 m/S 754 mmHg 77%
    12:00 +28°C° 2 mm 0 m/S 753 mmHg 76%
    13:00 +29°C° 2 mm 0 m/S 752 mmHg 74%
    14:00 +31°C° 2 mm 1 m/S 751 mmHg 73%
    15:00 +31°C° 1.5 mm 1 m/S 751 mmHg 76%
    16:00 +30°C° 1.5 mm 1 m/S 751 mmHg 79%
    17:00 +30°C° 1.5 mm 2 m/S 751 mmHg 82%
    18:00 +29°C° 0.6 mm 2 m/S 751 mmHg 85%
    19:00 +28°C° 0.6 mm 2 m/S 752 mmHg 87%
    20:00 +27°C° 0.6 mm 3 m/S 753 mmHg 90%
    21:00 +26°C° 3.3 mm 2 m/S 753 mmHg 92%
    22:00 +26°C° 3.3 mm 2 m/S 753 mmHg 94%
    23:00 +25°C° 3.3 mm 2 m/S 753 mmHg 96%

    10 Juni, Mittwoch

    Zeit Temperatur Niederschläge Wind Luftdruck Luftfeuchtigkeit
    00:00 +25°C° 9.4 mm 2 m/S 753 mmHg 96%
    01:00 +25°C° 9.4 mm 2 m/S 753 mmHg 97%
    02:00 +25°C° 9.4 mm 2 m/S 753 mmHg 98%
    03:00 +25°C° 2.5 mm 2 m/S 753 mmHg 98%
    04:00 +25°C° 2.5 mm 1 m/S 753 mmHg 97%
    05:00 +24°C° 2.5 mm 1 m/S 753 mmHg 96%
    06:00 +25°C° 0.8 mm 1 m/S 754 mmHg 96%
    07:00 +25°C° 0.8 mm 1 m/S 754 mmHg 95%
    08:00 +25°C° 0.8 mm 1 m/S 755 mmHg 94%
    09:00 +25°C° 0.4 mm 1 m/S 755 mmHg 94%
    10:00 +25°C° 0.4 mm 2 m/S 755 mmHg 94%
    11:00 +26°C° 0.4 mm 2 m/S 755 mmHg 94%
    12:00 +26°C° 0.2 mm 2 m/S 754 mmHg 90%
    13:00 +27°C° 0.2 mm 3 m/S 753 mmHg 86%
    14:00 +28°C° 0.2 mm 3 m/S 752 mmHg 82%
    15:00 +28°C° 0 mm 3 m/S 752 mmHg 81%
    16:00 +29°C° 0 mm 2 m/S 752 mmHg 80%
    17:00 +29°C° 0 mm 2 m/S 752 mmHg 79%
    18:00 +28°C° 0 mm 2 m/S 752 mmHg 83%
    19:00 +27°C° 0 mm 1 m/S 752 mmHg 86%
    20:00 +26°C° 0 mm 1 m/S 753 mmHg 90%
    21:00 +26°C° 0.6 mm 1 m/S 753 mmHg 91%
    22:00 +26°C° 0.6 mm 1 m/S 754 mmHg 93%
    23:00 +25°C° 0.6 mm 1 m/S 754 mmHg 95%
    Mehr zeigen